Location: Dzierzno
(50.6159°N, 19.2852°E)
Time: 07:24:01
(UTC+00:00)

Cosmos 921 Rocket - Pass Details

Date: 18 November 2025
Orbit: 563 x 621 km, 75.8° (Epoch: 06 December)

Event Time Altitude Azimuth Distance (km) Brightness Sun altitude
Rises 15:53:29 0° 222° (SW) 2,845 7.6 -9.6°
Reaches altitude 10° 15:55:49 10° 230° (SW) 1,955 6.9 -9.9°
Maximum altitude 15:59:54 38° 299° (WNW) 945 4.4 -10.5°
Drops below altitude 10° 16:04:04 10° 8° (N) 1,994 5.4 -11.2°
Sets 16:06:29 0° 17° (NNE) 2,909 6.2 -11.5°
Enters shadow 16:06:34 - 17° (NNE) 2,942 6.2 -11.6°
